sat.trackr.live / text

‹ back to catalog

STARLINK-31312

NORAD 59152 · 2024-044A

PAYLOAD ACTIVE UNKNOWN

§ Identity

Operator
Country
US
Launch date
2024-03-04
Launch site
AFETR
Launch vehicle
Mass (kg)
RCS (m²)

Purposes: comms

External: N2YO · Heavens-Above · Gunter

§ Orbital elements

Epoch: 2026-09-19T09:12:28.899648Z

Period
94.27 min
Inclination
43.0062°
Eccentricity
0.0001409
Mean motion
15.27578029 rev/d
Perigee alt
482.1 km
Apogee alt
484.0 km
Semi-major
6,861.2 km
B*
1.2943e-5
RAAN
42.4479°
Arg perigee
266.3891°
Mean anomaly
93.6799°
Rev number
14,380

§ Raw data

STARLINK-313121 59152U 24044A   26262.38366782  .00000094  00000+0  12943-4 0  99922 59152  43.0062  42.4479 0001409 266.3891  93.6799 15.27578029143803

JSON: /api/v1/satellites/59152 · /tle

For live sub-satellite position, see the globe view (requires WebGL).

§ Visibility from observer

Set your observer location to see the next 7 days of passes ≥ 10°. The values pass through the URL so the page stays shareable.

No JS? Fill the form by hand. The geolocation button needs JavaScript.